Regional Weather Roundup
Issued by NWS

Home | Current Version | Previous Version | Graphics & Text | Print | Product List | Glossary Off
Versions: 1 2 3 4 5 6 7 8 9 10 11 12 13 14 15 16 17 18 19 20 21 22 23 24 25 26 27 28 29 30 31 32 33 34 35 36 37 38 39 40 41 42 43 44 45 46 47 48 49 50

000
ASUS43 KDTX 221101
RWRMI
MICHIGAN HOURLY REGIONAL WEATHER ROUNDUP
NATIONAL WEATHER SERVICE DETROIT/PONTIAC MI
700 AM EDT TUE JUL 22 2014

NOTE: "FAIR" INDICATES FEW OR NO CLOUDS BELOW 12,000 FEET WITH NO
SIGNIFICANT WEATHER AND/OR OBSTRUCTION TO VISIBILITY.

MIZ047>049-052>055-059>063-066>070-074>076-081>083-221200-
SOUTHEAST LOWER MICHIGAN

CITY           SKY/WX    TMP DP  RH WIND       PRES   REMARKS
ADRIAN         CLEAR     61  59  93 CALM      30.12S
ALMA           CLEAR     64  62  91 S5        30.09S FOG
ANN ARBOR      FOG       57  55  93 CALM      30.12S VSB 1/4
BAD AXE        CLEAR     64  56  74 S5        30.10R
CARO           CLEAR     61  61  99 CALM      30.10R FOG
DETROIT CITY     N/A     68  60  75 CALM      30.11S
DETROIT        PTCLDY    66  63  90 CALM      30.12R FOG
FLINT          CLEAR     69  58  67 S5        30.10S
GROSSE ILE     CLEAR     66  64  94 CALM      30.10R
HILLSDALE      CLEAR     64  64 100 S3        30.12S FOG
HOWELL         CLEAR     67  58  74 SW5       30.11R

CITY           SKY/WX    TMP DP  RH WIND       PRES   REMARKS
JACKSON        CLEAR     66  61  84 CALM      30.12R
LAMBERTVILLE   CLEAR     63  59  88 CALM      30.12S
LANSING        CLEAR     66  61  84 S5        30.11R
LAPEER         FAIR      59  58  94 CALM      30.11S
MASON          CLEAR     64  60  86 S5        30.11R
MONROE           N/A     61  59  94 CALM      30.10R FOG
MT. CLEMENS    CLEAR     62  60  90 CALM      30.10S
PONTIAC        CLEAR     65  60  84 CALM      30.11S
PORT HOPE        N/A     69  55  60 SW5       30.07R
PORT HURON     CLEAR     57  57 100 CALM      30.12R
TRI CITIES     CLEAR     67  60  78 SW6       30.09R
TROY           CLEAR     66  60  79 CALM      30.13R
SAGINAW HB     CLEAR     66  61  82 S5        30.09R
$$
MIZ043>046-050>051-056>058-064>065-071>073-077>080-221200-
SOUTHWEST LOWER MICHIGAN

CITY           SKY/WX    TMP DP  RH WIND       PRES   REMARKS
BATTLE CREEK   CLEAR     66  62  87 S6        30.10S
BENTON HARBOR  CLEAR     65  63  93 S5        30.08R FOG
BIG RAPIDS     CLEAR     60  60 100 CALM      30.07R FOG
COLDWATER      CLEAR     67  63  87 CALM      30.11S
FREMONT        FAIR      64  64 100 CALM      30.06S FOG
HOLLAND        CLEAR     65  63  93 SE5       30.08R FOG
GRAND RAPIDS   PTCLDY    66  64  93 S7        30.09R FOG
IONIA          FAIR      65  63  91 S5        30.08S
KALAMAZOO      CLEAR     67  63  87 S3        30.10R
LUDINGTON      CLEAR     70  65  86 S9        30.03S
MARSHALL       CLEAR     63  60  91 CALM      30.11R
MOUNT PLEASANT CLEAR     66  63  91 SE3       30.07S
MUSKEGON       PTCLDY    71  66  84 S8        30.06R
SOUTH HAVEN    CLEAR     64  64 100 CALM      30.08R FOG
$$
MIZ016>042-221200-
NORTHERN LOWER MICHIGAN

CITY           SKY/WX    TMP DP  RH WIND       PRES   REMARKS
ALPENA         MOCLDY    69  64  84 SW6       30.05R
BEAVER ISLAND  CLEAR     70  65  83 S7G20     29.97F
BELLAIRE       CLEAR     69  63  82 CALM      30.01R
CADILLAC       CLEAR     66  64  91 S3        30.06R
CHARLEVOIX     CLEAR     70  64  81 S6        30.02S
FRANKFORT      PTCLDY    74  64  70 S13G21    29.99F
GAYLORD        CLEAR    N/A N/A N/A S9        30.06R
GRAYLING       CLEAR     69  65  88 S6        30.07R
HARBOR SPRINGS CLEAR     69  63  82 CALM      30.00S
HOUGHTON LAKE  CLEAR     67  64  90 S7        30.07S
MANISTEE       PTCLDY    64  61  88 E3        30.02F
OSCODA         CLEAR     66  65  94 CALM      30.06S FOG
PELLSTON       PTCLDY    64  61  90 S5        30.01R
ROGERS CITY    CLOUDY    68  64  87 SW6       30.05R
TRAVERSE CITY  PTCLDY    72  62  71 VRB5      29.99S
$$
MIZ007>008-015-221200-
EASTERN UPPER MICHIGAN

CITY           SKY/WX    TMP DP  RH WIND       PRES   REMARKS
KINROSS        MOCLDY    66  63  88 S7        29.98S
MACKINAC ISLAN CLOUDY    68  63  83 S8        30.00R
NEWBERRY       PTCLDY    65  61  86 S10G24    29.94F
S. S. MARIE    CLOUDY    66  61  84 CALM      29.98R
MUNISING         N/A     72  63  73 S5        29.89S
$$
MIZ004>006-011>014-085-221200-
CENTRAL UPPER MICHIGAN

CITY           SKY/WX    TMP DP  RH WIND       PRES   REMARKS
MANISTIQUE     MOCLDY    61  60  97 S5        29.94S FOG
ESCANABA       CLOUDY    66  61  82 S5        29.90S
MENOMINEE      CLOUDY    73  66  78 SW10      29.89S
SAWYER-GWINN   MOCLDY    68  64  88 MISG      29.89F
$$
MIZ001>003-009>011-084-221200-
WESTERN UPPER MICHIGAN

CITY           SKY/WX    TMP DP  RH WIND       PRES   REMARKS
IRON MOUNTAIN  CLOUDY    71  67  87 SE9       29.86F FOG
HOUGHTON       TSTM      66  64  93 SE23G32   29.70F
COPPER HARBOR    N/A     70  64  81 SW9       29.80F
IRONWOOD       CLOUDY    72  66  83 S14G21    29.71F
$$

ABBREVIATIONS USED IN REMARKS
   TC - TEMPERATURE IN CELSIUS
  WCI - WIND CHILL INDEX
   HX - HEAT INDEX
  VSB - VISIBILITY




USA.gov is the U.S. government's official web portal to all federal, state and local government web resources and services.